User: anonymous   Login
Location: Peebles
(55.6412°N, 3.1714°W)
Time: 14:02:45
(UTC+00:00)
Language:

Resurs 01 Rocket - Orbit

View from above orbital plane
View from above orbital plane
View from above satellite
View from above satellite

Ground track
Ground track

The orbit data is extracted from the following two-line orbital elements,

1 23343U 94074B   21342.13117241  .00000050  00000-0  14309-4 0  9997
2 23343  97.9232  33.8923 0006233 203.6257 178.0564 14.76923074458131
Epoch (UTC): 08 December 2021 03:08:53
Eccentricity: 0.0006233
inclination: 97.9232°
perigee height: 634 km
apogee height: 643 km
right ascension of ascending node: 33.8923°
argument of perigee: 203.6257°
revolutions per day: 14.76923074
mean anomaly at epoch: 178.0564°
orbit number at epoch: 45813

The dashed part of the orbit path shows where the satellite is in the earth's shadow,  

DLR